Temp
80 85 90 84 69 71 63 69 78 74 74 81 83 78 78 79 75 65 82 86 86 84 83 78 74 75 76 75 75 75 75 76 76 76 75 75 75 75 75 75 75 75 75 75 75 75 73 73 73
89 86 85 81 67 60 66 77 72 77 80 81 81 77 77 75 79 72 78 84 86 85 84 82 72 74 75 75 75 75 75 75 75 75 75 75 75 75 75 74 74 75 75 75 74 74 73 72 72
85 88 78 74 69 63 67 76 78 79 80 79 77 81 80 77 79 77 84 84 86 85 84 81 72 74 74 74 74 74 75 75 75 76 76 76 76 75 75 74 74 74 74 74 73 73 72 72 72
85 83 81 68 66 73 74 78 81 76 78 81 81 76 79 80 80 83 84 86 85 85 85 73 72 74 74 74 74 74 75 75 75 75 75 75 75 74 74 74 74 73 73 73 73 72 71 71 71
85 81 69 67 69 75 78 79 81 75 77 77 79 75 75 78 83 83 83 85 83 84 85 78 72 73 73 74 74 74 74 74 74 75 75 74 74 74 73 73 74 73 73 72 72 71 71 71 70
76 79 66 63 69 76 78 80 80 79 80 80 77 77 76 78 80 82 84 84 86 84 83 78 69 70 72 73 73 73 73 74 74 74 75 75 74 73 73 73 73 73 72 72 72 71 71 70 70
71 71 66 68 68 72 75 81 78 79 77 77 82 75 75 70 76 82 84 86 85 85 82 79 78 73 67 70 70 71 72 72 72 73 73 73 72 72 72 72 72 72 72 72 72 71 71 71 71
76 74 67 70 68 69 77 78 81 80 78 82 83 75 75 75 72 80 84 84 84 83 83 81 79 79 77 76 67 68 70 70 70 70 69 68 68 69 69 68 70 72 72 72 71 71 71 71 70
78 66 63 67 69 73 77 75 78 82 78 79 79 79 80 75 71 74 79 80 81 80 81 81 79 80 79 77 73 66 66 67 67 68 66 65 76 76 74 71 69 70 70 70 70 70 70 68 67
70 64 67 77 78 76 76 77 76 75 76 75 75 75 78 69 68 69 75 76 77 77 78 79 74 75 79 78 74 76 77 77 77 76 75 76 79 80 76 67 65 66 66 67 69 69 68 65 75
70 64 74 75 77 76 76 76 80 76 72 79 76 75 72 66 67 68 76 78 78 79 78 77 74 73 75 79 75 75 77 78 79 78 78 78 79 78 76 75 74 73 63 74 73 74 73 76 76
62 71 72 73 71 71 73 78 74 77 77 83 84 83 72 65 66 69 76 78 78 78 79 78 77 75 72 77 78 78 79 78 78 78 77 76 76 76 76 76 76 75 76 75 75 75 75 75 75
61 69 71 71 69 70 71 72 74 76 81 80 82 79 72 69 67 71 78 80 79 78 79 79 79 78 76 75 79 79 79 78 78 78 78 77 76 75 76 76 76 76 77 75 75 75 75 74 75
66 68 69 69 69 69 67 70 69 76 81 78 77 76 75 73 71 69 76 77 78 79 79 80 79 79 79 78 78 79 79 79 77 77 76 77 75 76 76 76 75 76 76 76 76 75 75 74 74
63 59 64 66 68 67 68 63 65 76 77 76 75 77 76 76 76 72 77 77 78 79 80 79 79 80 78 77 77 77 77 77 76 76 77 76 76 75 75 75 75 76 77 76 75 75 74 72 73
57 58 54 66 66 66 66 60 72 74 73 74 76 77 75 76 77 78 80 80 80 80 79 79 79 78 77 77 76 76 76 76 76 76 77 76 76 76 75 74 75 76 76 75 74 73 72 72 71
56 49 54 57 66 65 64 63 71 71 71 74 76 77 75 76 77 80 82 82 82 81 80 79 78 76 76 76 77 76 76 75 77 77 77 77 76 76 75 74 75 76 74 73 72 72 71 70 72
50 51 55 56 59 60 61 62 66 68 69 72 74 76 75 76 76 80 80 81 82 82 82 81 79 78 78 77 76 76 75 75 77 76 77 77 77 76 74 74 74 74 73 72 71 70 70 70 71
52 54 54 53 55 55 58 61 67 68 66 68 73 74 74 74 79 80 79 80 79 80 79 79 79 79 78 75 73 71 70 73 74 76 76 76 76 76 74 74 74 73 72 72 73 71 67 67 70
51 49 50 50 53 53 58 56 64 68 67 69 71 73 74 75 75 75 75 76 75 77 77 78 77 78 78 77 76 75 74 75 76 76 76 76 76 76 75 74 73 74 72 71 71 68 66 66 68
47 47 49 47 51 53 52 54 59 65 67 69 69 71 74 74 73 75 73 74 74 73 73 72 74 75 75 75 75 73 73 72 70 72 73 74 76 76 74 73 73 73 72 70 71 68 67 63 67
40 51 51 50 48 44 52 45 57 63 61 63 66 68 70 71 71 72 72 72 71 71 67 69 68 69 68 70 71 71 70 69 73 74 75 74 75 74 74 73 73 73 72 69 68 69 68 66 64
41 51 49 49 47 47 48 44 54 54 56 61 63 63 65 65 65 69 69 69 70 64 65 67 67 65 64 65 68 69 68 70 71 71 70 71 73 74 73 72 72 71 70 69 68 67 68 67 65
54 50 47 49 46 35 46 46 49 54 53 56 58 60 59 58 59 62 62 63 63 62 62 64 65 64 63 65 65 65 65 66 66 66 66 68 70 70 69 69 68 68 67 66 65 68 67 66 65
50 45 31 29 29 32 43 41 49 56 58 57 57 59 59 57 57 57 57 59 59 59 60 62 63 61 63 63 63 63 63 64 63 64 66 66 66 67 66 66 63 62 62 62 63 63 63 62 64
46 44 34 25 30 37 41 38 48 57 58 56 56 57 57 57 58 58 58 59 59 58 60 60 60 59 61 61 61 61 61 62 63 62 63 64 64 63 62 62 62 61 61 61 60 57 56 58 58
45 40 47 34 31 32 43 48 53 58 54 54 53 53 55 57 57 57 58 59 59 59 59 60 60 59 59 59 60 59 60 59 59 59 60 61 60 59 60 60 59 59 58 59 59 57 55 57 57
47 50 36 33 26 27 39 41 43 51 53 55 55 55 56 56 57 58 58 58 58 59 59 59 59 59 58 58 58 58 57 58 58 58 57 57 57 57 57 57 57 57 57 57 58 56 55 54 54
43 42 43 42 37 30 31 41 56 52 52 53 56 55 55 56 57 57 59 59 59 59 58 58 58 57 56 56 56 56 55 55 56 55 55 55 55 56 56 55 55 54 54 54 54 53 53 52 51
45 46 45 35 31 37 35 38 56 53 53 53 56 56 57 57 58 59 59 58 57 58 58 58 58 57 57 57 56 55 54 54 55 54 54 54 53 54 54 54 53 53 52 52 52 50 51 51 50
MSLP
1011.84 1011.49 1010.71 1010.47 1009.60 1007.71 1006.30 1005.60 1005.37 1005.80 1006.19 1006.53 1006.80 1007.21 1007.37 1007.84 1008.36 1010.23 1011.25 1011.46 1011.92 1012.87 1014.06 1015.12 1015.68 1016.09 1016.44 1016.75 1017.10 1017.46 1017.71 1017.97 1018.21 1018.43 1018.63 1018.82 1018.97 1019.07 1019.16 1019.21 1019.24 1019.26 1019.32 1019.35 1019.41 1019.47 1019.66 1019.64 1019.59
1011.10 1010.99 1010.60 1008.93 1007.76 1006.11 1004.86 1004.71 1005.41 1005.58 1006.15 1007.00 1007.43 1008.01 1007.93 1008.21 1009.54 1011.07 1011.42 1011.91 1012.17 1013.01 1014.10 1014.86 1015.83 1016.20 1016.57 1016.97 1017.33 1017.63 1017.94 1018.21 1018.40 1018.63 1018.84 1019.01 1019.17 1019.30 1019.39 1019.49 1019.54 1019.53 1019.56 1019.62 1019.68 1019.82 1019.93 1019.93 1019.89
1011.32 1010.69 1009.49 1007.82 1006.51 1005.03 1004.27 1004.59 1004.93 1005.89 1006.87 1007.10 1007.54 1008.12 1008.02 1008.70 1010.09 1010.99 1011.28 1012.09 1012.39 1013.25 1014.13 1014.91 1015.93 1016.34 1016.77 1017.19 1017.55 1017.86 1018.17 1018.40 1018.60 1018.78 1018.99 1019.10 1019.24 1019.37 1019.42 1019.60 1019.75 1019.81 1019.85 1019.90 1019.99 1020.11 1020.16 1020.14 1020.11
1010.45 1009.92 1008.84 1007.28 1005.47 1004.91 1004.61 1004.77 1004.93 1006.50 1007.09 1007.31 1007.30 1007.89 1009.20 1010.12 1010.28 1010.85 1011.78 1012.21 1012.85 1013.50 1014.08 1015.55 1016.11 1016.52 1016.92 1017.26 1017.71 1018.03 1018.38 1018.64 1018.85 1019.00 1019.22 1019.35 1019.49 1019.54 1019.62 1019.78 1019.91 1020.05 1020.12 1020.21 1020.30 1020.36 1020.38 1020.37 1020.33
1010.07 1008.68 1007.38 1006.28 1005.23 1004.57 1005.14 1005.49 1005.52 1006.28 1006.68 1007.31 1007.74 1007.90 1009.16 1010.54 1010.79 1011.34 1011.96 1012.40 1013.02 1013.64 1014.22 1015.62 1016.34 1016.75 1017.12 1017.43 1017.78 1018.14 1018.50 1018.77 1018.99 1019.15 1019.29 1019.55 1019.73 1019.83 1019.89 1019.99 1020.02 1020.18 1020.22 1020.36 1020.44 1020.48 1020.50 1020.48 1020.43
1009.11 1007.93 1006.57 1005.45 1004.74 1004.59 1005.24 1005.63 1005.79 1006.04 1006.45 1007.00 1007.79 1008.08 1009.52 1011.13 1011.33 1011.73 1012.01 1012.48 1013.06 1013.69 1014.38 1015.66 1016.63 1017.00 1017.31 1017.54 1017.90 1018.25 1018.55 1018.84 1019.07 1019.24 1019.38 1019.57 1019.85 1019.99 1020.09 1020.18 1020.25 1020.31 1020.38 1020.45 1020.53 1020.56 1020.56 1020.54 1020.48
1008.87 1007.41 1006.10 1005.17 1004.62 1004.50 1005.11 1005.80 1005.83 1005.89 1006.71 1007.06 1007.46 1008.01 1009.79 1011.62 1011.97 1011.95 1012.36 1012.65 1013.20 1013.79 1014.50 1015.58 1016.36 1017.10 1017.57 1017.82 1018.11 1018.41 1018.63 1018.89 1019.16 1019.36 1019.51 1019.68 1019.87 1020.06 1020.17 1020.26 1020.31 1020.38 1020.44 1020.48 1020.50 1020.54 1020.58 1020.53 1020.48
1008.56 1007.47 1006.12 1005.05 1004.53 1004.66 1005.31 1005.92 1006.02 1006.00 1006.50 1007.49 1007.91 1007.94 1009.01 1010.93 1012.54 1012.29 1012.41 1012.96 1013.47 1014.13 1014.57 1015.18 1015.98 1016.71 1017.28 1017.82 1018.35 1018.59 1018.80 1018.91 1019.22 1019.41 1019.62 1019.80 1019.95 1020.07 1020.18 1020.30 1020.30 1020.32 1020.35 1020.36 1020.38 1020.41 1020.40 1020.42 1020.35
1009.05 1007.54 1005.74 1005.00 1004.64 1004.58 1005.73 1006.04 1006.72 1006.72 1007.02 1007.75 1008.46 1008.80 1009.69 1011.39 1012.63 1012.67 1012.59 1013.07 1013.66 1014.43 1014.77 1015.12 1015.85 1016.27 1016.82 1017.36 1018.07 1018.63 1018.87 1019.07 1019.20 1019.40 1019.62 1019.82 1019.48 1019.50 1019.76 1019.82 1020.14 1020.25 1020.31 1020.31 1020.26 1020.22 1020.23 1020.23 1020.11
1008.74 1007.14 1005.64 1004.90 1004.62 1004.76 1005.73 1005.91 1006.51 1007.05 1007.07 1007.66 1008.73 1010.01 1010.47 1012.29 1012.65 1012.67 1012.43 1012.85 1013.45 1014.19 1014.87 1015.51 1016.42 1016.58 1016.37 1017.04 1017.66 1018.12 1018.37 1018.60 1018.78 1018.92 1019.11 1019.28 1018.80 1018.81 1019.15 1019.60 1019.97 1020.14 1020.17 1020.18 1020.12 1020.09 1020.04 1020.08 1019.36
1008.55 1007.02 1006.08 1005.60 1005.89 1005.79 1005.80 1006.03 1006.30 1006.44 1006.57 1006.74 1007.79 1009.39 1010.89 1012.27 1012.79 1012.85 1012.41 1012.56 1013.12 1013.92 1014.71 1015.53 1016.38 1016.76 1016.88 1016.58 1017.26 1017.76 1017.92 1018.01 1018.09 1018.32 1018.50 1018.55 1018.59 1018.84 1019.21 1019.26 1019.39 1019.61 1019.73 1019.62 1019.47 1019.40 1019.42 1018.91 1018.97
1009.19 1007.75 1007.11 1006.62 1007.14 1006.66 1006.31 1006.31 1006.35 1006.34 1006.29 1006.57 1007.15 1008.32 1010.66 1011.90 1012.47 1012.58 1012.31 1012.39 1012.95 1013.53 1014.18 1015.15 1015.73 1016.40 1017.03 1016.87 1017.06 1017.26 1017.31 1017.65 1017.89 1018.03 1018.29 1018.46 1018.63 1018.70 1018.78 1018.83 1018.89 1019.06 1019.10 1019.02 1019.04 1018.98 1018.97 1018.92 1018.87
1009.70 1008.10 1007.78 1007.70 1007.84 1007.52 1007.37 1006.88 1006.50 1006.43 1006.59 1007.36 1007.68 1008.58 1010.30 1011.46 1012.22 1012.49 1012.09 1012.35 1012.93 1013.41 1013.95 1014.63 1015.23 1015.83 1016.31 1016.74 1016.51 1016.75 1016.97 1017.39 1017.58 1017.81 1018.04 1018.23 1018.36 1018.49 1018.47 1018.47 1018.60 1018.69 1018.74 1018.81 1018.83 1018.73 1018.64 1018.60 1018.52
1009.76 1008.72 1008.09 1008.10 1008.02 1008.10 1007.84 1007.38 1007.50 1006.59 1006.75 1007.41 1008.02 1008.71 1009.75 1010.78 1011.61 1012.25 1011.94 1012.13 1012.72 1013.16 1013.64 1014.30 1014.88 1015.25 1015.70 1016.14 1016.28 1016.44 1016.74 1016.97 1017.38 1017.58 1017.78 1017.98 1018.14 1018.15 1018.17 1018.23 1018.31 1018.38 1018.46 1018.49 1018.53 1018.50 1018.40 1018.33 1018.32
1010.14 1009.62 1008.73 1008.27 1008.19 1008.13 1008.21 1007.84 1007.33 1006.73 1007.23 1007.35 1007.85 1008.38 1009.33 1010.02 1010.86 1011.47 1011.56 1011.81 1012.33 1012.81 1013.29 1013.83 1014.44 1014.90 1015.40 1015.87 1016.14 1016.40 1016.65 1016.91 1017.05 1017.23 1017.41 1017.66 1017.86 1017.95 1018.02 1018.07 1018.06 1018.05 1018.10 1018.27 1018.32 1018.23 1018.22 1018.27 1018.09
1011.05 1010.12 1008.69 1007.97 1008.43 1008.50 1008.38 1007.04 1006.80 1007.40 1007.59 1007.38 1007.61 1008.02 1008.86 1009.52 1010.08 1010.62 1011.00 1011.34 1011.81 1012.35 1012.90 1013.57 1014.19 1014.67 1015.11 1015.46 1015.86 1016.09 1016.30 1016.53 1016.70 1016.85 1016.97 1017.14 1017.36 1017.59 1017.71 1017.79 1017.76 1017.77 1017.80 1018.00 1018.08 1018.06 1018.05 1018.01 1018.05
1010.54 1009.49 1008.95 1008.72 1008.63 1008.45 1008.36 1007.22 1006.88 1007.72 1007.82 1007.38 1007.45 1007.78 1008.42 1008.97 1009.61 1010.00 1010.25 1011.02 1011.36 1011.83 1012.44 1013.12 1013.81 1014.33 1014.76 1015.12 1015.31 1015.61 1015.88 1016.10 1016.13 1016.26 1016.45 1016.56 1016.81 1017.03 1017.25 1017.32 1017.35 1017.44 1017.52 1017.67 1017.85 1017.89 1017.91 1017.82 1017.62
1010.51 1009.67 1009.27 1008.68 1009.26 1009.17 1008.54 1007.67 1007.62 1008.03 1008.02 1007.58 1007.54 1007.78 1008.12 1008.49 1009.07 1009.67 1010.17 1010.74 1011.28 1011.70 1012.14 1012.68 1013.27 1013.84 1014.37 1014.77 1015.04 1015.16 1015.39 1015.53 1015.61 1015.75 1015.86 1016.07 1016.27 1016.53 1016.81 1016.96 1017.05 1017.16 1017.27 1017.36 1017.49 1017.68 1017.78 1017.68 1017.35
1012.08 1010.17 1009.67 1010.01 1010.33 1009.98 1009.03 1008.17 1007.66 1007.92 1008.29 1007.94 1007.60 1007.84 1008.16 1008.50 1008.91 1009.53 1010.25 1010.80 1011.28 1011.69 1012.00 1012.42 1012.86 1013.38 1013.91 1014.31 1014.63 1014.97 1015.09 1015.30 1015.39 1015.33 1015.50 1015.70 1015.84 1016.03 1016.36 1016.53 1016.52 1016.58 1016.89 1017.00 1017.02 1017.21 1017.49 1017.58 1017.45
1012.75 1011.62 1011.14 1011.29 1011.22 1010.98 1009.59 1008.80 1008.15 1007.80 1008.03 1008.11 1007.98 1007.94 1008.24 1008.58 1009.16 1009.90 1010.54 1011.09 1011.59 1011.79 1012.12 1012.36 1012.69 1013.07 1013.49 1013.78 1014.15 1014.46 1014.68 1014.77 1014.75 1014.72 1014.98 1015.15 1015.26 1015.42 1015.68 1015.94 1016.10 1016.24 1016.51 1016.68 1016.83 1017.13 1017.36 1017.35 1017.15
1013.91 1012.84 1012.13 1012.00 1011.84 1011.65 1010.80 1008.92 1008.05 1007.89 1008.14 1008.29 1008.57 1008.70 1008.72 1008.96 1009.34 1009.78 1010.53 1011.01 1011.59 1012.07 1012.52 1012.84 1012.94 1013.26 1013.56 1013.90 1014.15 1014.55 1014.75 1014.83 1014.87 1014.83 1014.88 1014.94 1014.96 1015.10 1015.25 1015.52 1015.62 1015.84 1016.08 1016.31 1016.48 1016.81 1016.96 1017.10 1016.88
1014.78 1013.82 1012.94 1012.59 1012.35 1011.75 1011.49 1009.14 1007.89 1007.66 1008.22 1008.57 1008.75 1009.00 1009.23 1009.58 1010.16 1010.39 1010.64 1011.18 1011.67 1012.24 1013.04 1013.40 1013.74 1013.87 1014.22 1014.34 1014.40 1014.43 1014.52 1014.46 1014.29 1014.31 1014.46 1014.63 1014.76 1014.98 1015.07 1015.19 1015.30 1015.47 1015.78 1016.15 1016.40 1016.57 1016.58 1016.79 1016.73
1015.24 1014.46 1013.96 1013.58 1013.16 1012.72 1011.82 1011.09 1008.86 1009.14 1008.82 1008.83 1009.22 1009.80 1010.25 1010.55 1010.79 1010.93 1011.21 1011.60 1011.86 1012.93 1013.33 1013.56 1013.88 1014.39 1014.61 1014.69 1014.65 1014.57 1014.61 1014.58 1014.55 1014.61 1014.71 1014.77 1014.70 1014.63 1014.79 1014.93 1015.11 1015.38 1015.67 1015.97 1016.20 1016.39 1016.42 1016.52 1016.64
1014.47 1014.58 1015.03 1014.62 1014.18 1013.25 1012.19 1011.45 1009.60 1009.29 1009.96 1010.06 1010.52 1010.87 1011.32 1011.69 1011.86 1011.90 1012.20 1012.42 1012.87 1013.49 1013.75 1013.86 1014.05 1014.43 1014.77 1014.72 1014.91 1014.92 1014.90 1014.85 1014.88 1014.94 1015.02 1014.94 1014.87 1014.97 1015.20 1015.25 1015.38 1015.41 1015.75 1016.06 1016.25 1016.33 1016.42 1016.44 1016.67
1014.48 1014.66 1015.62 1015.87 1015.46 1013.96 1013.27 1012.38 1010.29 1009.95 1010.42 1010.86 1011.15 1011.32 1011.77 1012.17 1012.44 1012.72 1012.89 1013.04 1013.38 1013.74 1014.03 1014.18 1014.35 1014.65 1014.83 1014.89 1015.06 1015.17 1015.22 1015.25 1015.24 1015.22 1015.16 1015.15 1015.14 1015.25 1015.47 1015.64 1015.87 1016.06 1016.15 1016.31 1016.34 1016.64 1016.78 1016.83 1016.86
1014.40 1014.79 1015.61 1015.93 1015.49 1014.18 1013.80 1011.84 1010.39 1010.58 1010.95 1011.46 1011.75 1011.95 1012.27 1012.49 1012.78 1013.01 1013.33 1013.45 1013.70 1014.02 1014.26 1014.54 1014.67 1014.88 1015.06 1015.21 1015.36 1015.52 1015.59 1015.55 1015.61 1015.71 1015.67 1015.52 1015.49 1015.76 1016.05 1016.08 1016.09 1016.44 1016.46 1016.48 1016.61 1017.08 1017.31 1017.31 1017.30
1014.98 1015.56 1016.13 1016.58 1017.00 1015.65 1013.13 1011.74 1011.19 1010.48 1011.36 1011.56 1011.86 1012.20 1012.42 1012.61 1012.95 1013.23 1013.66 1013.91 1014.11 1014.20 1014.43 1014.64 1014.86 1015.14 1015.28 1015.37 1015.56 1015.76 1015.85 1015.92 1015.95 1016.03 1016.01 1016.03 1016.28 1016.39 1016.40 1016.50 1016.72 1016.76 1017.05 1016.88 1016.96 1017.29 1017.61 1017.65 1017.79
1015.09 1015.28 1015.99 1017.18 1016.93 1015.13 1012.90 1011.98 1011.03 1010.94 1011.49 1011.73 1012.00 1012.39 1012.58 1012.93 1013.09 1013.35 1013.66 1014.10 1014.49 1014.63 1014.82 1015.00 1015.14 1015.24 1015.45 1015.60 1015.83 1016.06 1016.21 1016.32 1016.43 1016.35 1016.41 1016.51 1016.63 1016.78 1016.82 1016.87 1017.05 1017.15 1017.34 1017.29 1017.35 1017.67 1017.93 1017.96 1018.23
1015.47 1015.49 1016.13 1016.61 1016.96 1015.70 1013.75 1011.80 1010.98 1011.70 1012.16 1012.16 1012.42 1012.77 1012.90 1012.96 1013.12 1013.29 1013.52 1013.98 1014.57 1014.91 1015.11 1015.29 1015.34 1015.49 1015.68 1015.84 1016.07 1016.31 1016.54 1016.70 1016.72 1016.80 1016.90 1016.93 1017.03 1017.08 1017.22 1017.35 1017.50 1017.71 1017.88 1017.88 1017.90 1018.15 1018.38 1018.47 1018.69
1016.41 1015.78 1016.24 1016.58 1017.13 1016.16 1015.04 1012.85 1011.97 1012.22 1012.56 1012.70 1012.78 1012.81 1012.99 1013.15 1013.14 1013.18 1013.49 1013.97 1014.55 1014.90 1015.16 1015.31 1015.34 1015.48 1015.66 1015.84 1016.23 1016.45 1016.68 1016.87 1016.93 1017.09 1017.35 1017.37 1017.47 1017.59 1017.71 1017.82 1018.04 1018.18 1018.38 1018.53 1018.50 1018.72 1018.94 1019.07 1019.22
Wind_Speed
10 7 4 5 7 8 10 9 3 6 7 5 7 2 9 9 3 3 7 8 18 18 18 17 13 14 14 13 14 13 13 11 11 10 9 9 10 10 10 9 9 9 9 9 9 9 9 11 12
8 5 5 7 9 10 10 7 10 9 7 7 9 3 5 5 7 8 12 10 17 17 17 16 10 15 15 14 14 13 12 11 11 11 10 10 10 9 9 9 8 8 8 8 8 7 7 9 10
7 9 7 6 11 13 6 7 10 9 9 12 7 4 3 6 7 11 9 15 17 15 16 15 11 14 15 15 14 12 11 11 11 10 9 9 7 7 6 11 8 7 7 7 7 6 6 7 7
5 6 6 9 13 15 6 4 7 11 7 8 6 5 5 5 6 7 16 19 16 15 15 16 13 14 14 15 13 12 11 10 10 8 8 6 6 5 6 11 9 7 6 6 6 5 5 5 5
7 8 10 13 17 4 3 2 8 11 11 11 8 6 4 5 7 13 17 17 16 15 14 15 11 12 13 13 13 12 10 9 9 8 8 7 5 4 6 7 8 8 5 4 4 3 3 3 3
8 7 11 14 16 9 4 6 10 13 9 9 8 5 8 6 11 14 17 17 15 15 15 15 11 11 10 12 11 11 10 9 8 7 6 6 7 4 3 3 3 3 4 3 2 1 0 2 3
13 11 14 15 13 8 8 7 11 13 10 10 3 8 7 9 10 14 15 15 15 14 14 14 14 12 8 9 10 9 8 9 7 6 5 6 6 6 4 3 3 3 3 2 2 3 4 5 5
8 11 19 14 11 11 8 11 8 10 9 5 3 6 7 14 13 12 15 14 13 13 13 15 12 13 12 10 7 7 7 9 8 7 6 6 5 5 6 4 6 4 4 4 5 5 6 7 8
6 11 14 16 15 8 9 12 7 2 3 7 6 3 6 19 15 14 15 15 13 12 12 11 9 13 11 9 10 7 5 2 4 7 7 6 7 9 8 7 4 4 5 6 7 7 7 6 10
10 12 18 13 10 8 12 13 11 8 10 9 8 6 14 15 16 17 18 16 17 16 14 12 11 7 9 8 11 10 9 8 8 8 9 8 8 4 3 1 5 6 7 8 9 9 7 8 8
10 14 16 3 6 3 10 12 10 11 12 10 13 14 15 14 14 16 17 17 17 16 13 12 11 10 9 8 4 4 5 6 6 9 8 7 4 4 5 5 5 6 9 6 7 8 7 6 5
9 14 3 1 2 3 8 9 11 12 5 1 6 16 16 16 16 17 16 16 16 16 15 15 14 12 10 7 8 8 7 6 6 7 9 5 5 6 5 5 5 4 4 5 5 4 5 6 7
14 11 7 2 3 3 1 8 10 13 7 4 7 14 15 16 15 15 15 13 14 15 14 14 14 13 12 13 8 8 7 6 7 7 7 7 6 6 6 6 5 5 5 5 6 6 6 6 6
1 14 7 5 5 2 3 4 2 11 10 7 10 12 13 15 17 14 15 14 14 13 14 14 14 13 12 11 10 7 7 7 7 6 7 10 6 6 6 6 6 6 6 6 5 6 6 5 6
6 9 8 8 8 4 3 6 10 4 9 11 10 11 11 14 16 17 16 15 15 13 13 14 14 13 12 12 9 8 7 7 6 7 8 10 8 8 8 6 6 6 6 6 6 7 6 6 5
11 9 10 12 9 6 6 11 13 6 9 11 11 11 12 14 15 15 15 15 14 13 13 13 11 13 13 11 9 8 8 7 7 7 7 9 10 10 8 7 7 6 5 5 6 6 6 6 6
10 11 16 8 8 5 10 9 9 4 8 11 11 10 11 12 13 13 13 13 13 14 13 13 13 13 13 12 9 9 9 8 8 7 7 9 10 11 9 6 6 7 5 6 6 6 6 7 7
9 12 8 11 5 6 10 13 5 5 7 10 10 10 11 11 14 12 12 12 11 11 12 12 11 13 13 9 8 7 8 8 8 6 7 10 8 10 8 7 7 7 6 6 6 5 5 7 7
11 5 7 5 6 4 12 14 14 8 6 9 10 11 10 10 9 11 11 11 10 11 11 11 11 12 10 8 8 8 8 6 7 7 10 11 9 10 9 7 8 7 7 7 7 6 3 5 6
9 4 1 3 4 3 4 13 13 12 10 10 11 11 10 9 9 9 9 9 9 10 10 11 11 11 10 7 7 7 6 7 7 6 8 10 11 10 9 8 7 8 7 8 8 5 5 4 5
8 7 7 5 2 1 6 11 14 12 13 12 10 10 8 8 9 9 9 9 8 7 5 5 7 8 8 7 6 5 5 3 4 5 5 7 9 9 8 8 8 7 8 6 7 6 8 6 4
4 10 8 5 5 1 2 4 3 7 7 9 11 11 11 9 7 6 6 9 8 6 4 4 4 4 1 3 6 9 7 7 6 5 4 5 7 8 8 8 8 7 6 7 7 7 6 7 5
6 7 8 5 4 5 6 5 3 3 3 7 2 3 5 6 6 8 8 5 4 6 5 5 5 4 3 2 4 5 7 5 4 4 5 6 6 6 6 7 7 7 6 6 7 6 5 4 4
7 7 2 6 3 5 10 5 7 1 4 5 4 5 4 4 4 3 3 1 5 4 4 3 5 4 3 3 2 3 4 4 3 3 3 4 3 2 3 5 5 5 4 2 2 4 3 2 1
8 8 1 3 3 5 3 4 11 10 6 4 7 6 6 2 1 1 2 4 5 5 4 3 4 4 3 3 3 2 1 3 4 4 4 3 3 2 1 1 2 2 3 2 2 1 2 2 0
9 8 3 3 3 1 3 7 2 2 3 5 6 7 6 2 1 1 2 2 5 5 5 5 5 5 4 4 3 3 3 2 2 2 3 2 2 3 2 2 4 3 3 3 4 3 2 2 2
4 6 6 4 1 3 5 6 6 6 4 2 3 5 5 2 2 2 1 1 3 4 4 4 5 4 4 4 3 3 3 4 3 4 3 3 4 3 3 4 4 4 3 3 3 3 2 2 3
3 9 4 3 4 5 6 5 8 3 6 8 10 8 4 2 2 1 3 2 1 2 3 2 2 4 3 3 3 3 3 3 3 3 4 4 4 4 3 4 4 4 4 3 4 3 3 4 3
3 4 2 5 3 3 4 3 7 8 6 8 10 7 5 2 2 2 2 3 3 2 2 3 3 3 3 2 3 2 2 3 3 3 3 4 3 4 4 4 4 4 4 4 4 4 4 5 5
6 8 9 5 5 6 4 6 9 6 5 7 12 8 5 4 4 3 3 4 3 3 4 5 4 4 3 3 3 3 3 2 2 3 3 3 4 4 4 4 4 4 5 5 5 5 4 4 4
Wind_Direction
266 197 209 222 235 231 238 216 237 170 173 130 157 172 189 342 246 29 145 135 144 140 149 164 161 159 154 152 138 134 126 122 117 111 108 105 103 101 97 94 92 93 93 90 86 81 62 57 56
287 202 228 265 248 234 234 153 201 170 128 160 134 197 220 104 70 117 140 155 156 144 147 158 153 160 156 146 140 136 132 130 122 115 117 117 115 113 111 104 99 97 98 95 89 86 69 61 58
251 232 261 225 238 249 281 154 196 117 146 159 164 286 65 78 93 147 120 159 148 146 152 137 150 153 150 148 143 137 135 134 131 133 129 134 126 124 136 126 114 102 98 95 93 88 77 62 56
226 200 239 248 239 244 288 187 135 152 157 193 189 184 109 38 129 155 140 151 146 149 156 134 149 149 152 141 144 137 138 139 139 141 135 126 125 76 103 129 117 108 100 95 89 82 73 61 47
224 257 245 224 249 236 234 267 179 184 166 183 189 149 97 118 112 129 150 151 152 153 146 149 142 147 149 145 144 140 144 148 151 153 150 143 137 120 82 89 119 130 116 110 102 87 71 51 35
240 252 233 237 227 200 202 191 200 198 169 155 196 158 107 104 139 149 154 156 153 154 145 148 137 138 146 139 135 142 152 156 162 165 166 160 154 155 141 126 113 122 137 146 149 131 1 332 331
242 225 237 242 249 170 208 188 199 195 184 182 308 208 98 153 142 157 159 154 157 152 157 152 162 154 149 149 148 159 167 155 155 159 139 154 158 162 170 173 190 185 190 223 262 272 287 301 307
262 253 244 242 234 238 145 177 205 197 196 60 197 218 194 154 151 171 160 156 160 154 168 155 175 167 170 167 157 164 178 171 175 177 169 170 174 192 196 204 212 231 246 265 278 290 288 294 297
255 235 231 222 222 221 151 186 191 87 155 200 175 340 45 130 148 168 162 160 162 167 171 159 174 179 180 179 167 174 180 190 176 174 188 186 221 186 190 197 142 225 256 264 269 273 284 295 275
230 224 229 228 219 239 179 199 162 183 195 192 184 112 120 147 158 168 173 171 171 173 174 169 181 196 191 179 151 192 184 200 197 198 184 219 221 214 264 116 186 239 251 262 260 260 260 262 261
225 238 230 228 274 272 187 202 175 208 192 197 198 168 148 164 173 176 182 177 177 175 174 176 184 186 208 186 159 188 221 206 212 207 220 219 237 222 214 239 206 225 211 248 219 230 230 266 289
268 236 282 303 174 186 202 205 200 216 95 280 165 152 161 176 181 183 191 180 180 180 182 182 185 183 191 225 193 202 207 207 213 217 216 219 229 231 239 236 241 238 256 256 263 263 268 276 274
264 261 230 202 201 241 28 225 214 213 141 133 142 144 170 178 186 196 194 187 185 188 187 188 188 190 190 207 208 213 212 207 221 219 217 221 226 233 236 238 240 246 249 250 254 257 260 265 267
52 262 226 193 176 165 237 207 259 211 169 164 162 169 173 184 183 189 198 193 192 193 193 193 194 196 196 203 215 210 216 220 217 225 221 220 233 230 237 241 244 245 249 256 258 265 272 275 278
302 262 221 207 187 159 230 213 227 134 179 177 175 174 176 184 184 191 201 196 194 195 196 196 194 198 203 205 212 219 223 221 222 224 225 223 221 235 242 244 247 248 246 250 256 257 251 263 266
213 268 215 185 185 148 197 229 201 157 197 201 183 177 177 186 189 193 199 198 192 193 197 194 196 201 205 209 209 215 220 220 226 226 221 223 225 229 233 237 244 244 242 243 256 265 268 258 264
198 200 229 154 210 151 203 217 125 165 217 213 200 188 183 181 189 193 192 197 194 196 193 196 197 205 208 213 215 216 217 222 229 226 225 226 222 226 227 236 241 245 239 246 252 262 268 273 273
200 220 198 214 141 227 206 236 127 199 239 219 209 202 190 196 191 193 191 193 201 201 205 201 202 206 208 211 217 223 227 229 231 229 233 230 229 225 225 231 239 238 245 249 250 245 258 275 281
319 277 221 33 43 286 230 246 245 177 227 236 224 210 203 197 193 187 196 195 204 210 212 215 213 212 211 203 215 223 226 230 231 228 235 235 231 229 223 230 236 235 240 247 257 262 271 267 284
292 339 144 110 33 285 265 261 248 246 238 243 237 223 218 199 186 188 196 206 211 219 221 222 219 221 214 218 217 211 224 230 233 223 233 233 234 229 230 226 234 235 238 244 252 247 246 251 257
279 304 36 25 20 199 299 266 242 233 241 239 240 257 258 233 211 189 189 195 196 203 207 229 227 222 222 223 220 223 252 271 257 246 242 242 241 238 226 232 237 232 235 240 245 236 229 247 267
277 347 323 307 325 281 322 278 205 218 230 226 239 239 243 231 224 251 201 205 185 163 135 169 161 176 234 273 239 235 238 245 241 235 254 235 224 238 234 235 237 239 238 235 248 251 242 241 256
218 336 12 348 295 307 223 256 252 128 243 242 246 329 323 330 315 252 231 222 159 132 170 163 157 136 132 193 228 238 244 266 290 294 278 274 268 254 258 242 244 243 241 242 246 250 255 236 265
150 156 341 330 310 261 239 240 260 241 24 17 29 31 13 343 317 280 354 176 159 142 167 156 161 141 145 182 189 246 266 277 282 270 272 269 277 267 255 250 245 246 249 273 273 267 276 302 107
227 134 79 198 199 256 76 230 263 324 353 335 306 315 334 11 14 67 172 176 160 164 146 146 158 135 124 115 97 68 342 291 276 284 281 303 266 231 212 260 207 61 62 63 76 69 93 68 254
203 156 158 250 223 257 135 236 144 359 333 313 291 292 309 293 117 143 132 140 142 140 142 142 136 133 121 114 104 88 61 39 18 348 313 286 328 27 50 73 93 99 107 115 97 66 50 78 91
161 198 111 78 91 280 234 247 257 263 102 86 0 340 310 234 183 153 109 118 134 139 138 138 136 121 108 100 92 76 54 46 42 37 36 51 61 65 76 82 92 84 70 71 97 110 110 90 64
272 136 98 93 248 238 247 268 257 174 45 24 6 346 327 276 272 182 162 161 163 147 140 127 131 131 120 104 81 62 53 38 38 46 58 65 80 85 87 85 77 73 71 68 75 88 77 95 73
149 183 175 152 236 290 300 260 70 64 33 356 353 346 335 304 270 243 196 170 192 178 173 164 163 157 147 132 114 112 81 55 56 56 54 54 63 63 68 68 69 63 61 54 66 71 66 77 87
310 227 193 212 197 238 339 268 85 84 67 25 6 5 355 322 294 247 200 180 180 199 198 202 183 176 171 151 146 126 116 93 78 72 66 56 67 60 73 79 79 74 62 50 59 68 63 86 87